Location: *
(48.7358°N, 0.3111°E)
Time: 04:35:14
(UTC+00:00)

CENTAUR R/B - Pass Details

Date: 22 October 2019
Orbit: 781 x 1407 km, 63.4° (Epoch: 10 November)

Event Time Altitude Azimuth Distance (km) Brightness Sun altitude
Exits shadow 03:56:31 36° 301° (WNW) 1,955 3.7 -25.7°
Maximum altitude 04:00:00 62° 237° (WSW) 1,503 3.1 -25.1°
Drops below altitude 10° 04:08:29 10° 160° (SSE) 3,485 5.5 -23.8°
Sets 04:11:28 0° 157° (SSE) 4,461 6.1 -23.3°
